ブロートン彗星

C/2006 OF2 ( Broughton )

English version
Home page
Total 6,336 html files since Dec. 4, 1995
Updated on June 30, 2008

---------------------------------------------------------------------

・ プロフィール

発見日 2006年7月17日
発見光度 18.2等
発見者 J. Broughton (Reedy Creek)

・ 写真集

・ 軌道要素

Epoch 2008 Sept. 11.0 TT = JDT 2454720.5
T 2008 Sept. 15.69069 TT                                MPC
q   2.4314889            (2000.0)            P               Q
z  -0.0003531      Peri.   95.61165     +0.49678217     -0.80146590
 +/-0.0000082      Node   318.50789     +0.45178575     +0.56638380
e   1.0008584      Incl.   30.16969     +0.74101087     +0.19199427
From 156 observations 2006 June 23-2007 May 25, mean residual 0".35.

・ 星図

・ 光度変化

        m1 = 5.0 + 5 logΔ + 10.0 log r

---------------------------------------------------------------------

軌道要素はM.P.E.C. 2007-K71に掲載されたものです。
星図は StellaNavigator Ver.2.0 for Windows (アストロアーツ 編著 / アスキー出版局刊) で作成したものです。
光度グラフはComet for Windowsで作成したものです。

---------------------------------------------------------------------

Copyright(C) 1995-2008 Seiichi Yoshida (comet@aerith.net). All rights reserved.